Location: Beuvrequen
(50.8014°N, 1.6652°E)
Time: 14:50:45
(UTC+00:00)

Lacrosse 4 Rocket - Pass Details

Date: 01 June 2022
Orbit: 541 x 611 km, 68.0° (Epoch: 30 June)

Event Time Altitude Azimuth Distance (km) Brightness Sun altitude
Exits shadow 01:50:49 - 159° (SSE) 2,101 3.9 -12.5°
Reaches altitude 10° 01:51:32 10° 152° (SSE) 1,889 3.7 -12.5°
Maximum altitude 01:54:25 18° 109° (ESE) 1,430 3.5 -12.3°
Drops below altitude 10° 01:57:17 10° 66° (ENE) 1,870 4.9 -12.0°
Sets 02:00:01 0° 47° (NE) 2,758 6.5 -11.8°
